Cloud_Cover
0 0 0 0 2 5 4 0 0 16 100 73 100 100 21 50 100 59 94 100 100 100 100 100 90 17 29 100 100 100 100 100 100 100 66 51 68 100 100 41 58 88 88 46 13 5 63 100 94
0 0 0 0 2 82 14 0 0 0 100 100 100 99 89 61 99 83 95 61 97 85 100 100 100 100 82 82 100 95 14 100 100 73 64 100 100 100 57 80 5 5 5 10 29 5 5 17 19
0 0 0 0 0 12 44 0 0 0 31 100 99 24 98 59 100 100 100 49 96 100 91 100 100 100 100 13 11 27 74 100 91 81 69 4 13 38 28 3 5 12 83 47 100 99 82 51 17
0 0 0 0 4 3 0 0 0 0 0 50 94 10 19 93 87 100 20 5 6 66 67 100 77 81 100 88 13 7 64 7 65 84 5 2 0 0 0 0 0 2 5 38 98 76 46 48 79
0 0 1 0 0 0 1 0 0 0 0 4 12 64 86 100 100 95 100 50 100 32 5 21 48 20 81 100 100 100 18 5 5 3 2 0 0 0 0 0 0 4 5 3 4 5 25 17 20
0 0 14 98 0 0 5 5 0 0 0 0 0 6 10 92 100 74 90 100 97 79 34 27 4 5 5 22 100 100 91 9 19 6 4 0 0 0 0 0 0 0 5 1 3 5 2 2 3
0 5 44 5 1 0 5 5 5 4 0 0 0 0 21 8 66 100 97 65 100 100 100 100 98 20 5 5 36 100 91 51 6 10 4 0 1 3 2 5 5 5 4 5 5 5 5 5 5
0 0 4 6 5 55 0 0 0 0 0 0 0 0 0 100 46 5 15 100 53 63 98 6 98 100 100 26 84 99 100 100 100 100 65 87 26 47 80 7 22 14 24 12 5 3 5 5 5
0 0 0 90 94 12 1 0 0 0 0 0 0 2 63 91 37 1 13 47 92 97 82 98 36 64 100 100 89 6 5 60 31 54 100 100 100 39 53 47 65 20 1 0 3 5 5 5 5
2 0 0 9 98 56 5 1 0 0 0 0 30 11 76 100 12 3 45 39 44 98 93 85 97 66 18 30 30 14 5 2 6 3 5 5 5 8 21 24 5 5 2 5 1 9 73 60 48
0 3 4 0 5 6 5 5 0 0 0 0 45 100 100 55 85 40 74 55 72 86 100 100 99 97 74 40 5 3 7 28 44 53 17 10 0 0 0 1 6 4 15 8 7 6 18 27 10
0 5 10 4 1 0 0 0 0 0 0 48 100 100 58 20 8 44 46 37 53 40 86 78 99 72 42 24 11 5 13 33 6 17 11 17 26 50 12 16 31 23 4 4 4 27 44 21 1
0 0 0 0 0 0 0 0 0 5 72 100 96 100 52 46 22 23 21 5 4 6 44 58 68 76 53 42 36 3 4 17 33 27 30 0 46 70 69 57 36 46 2 3 2 1 10 34 45
0 0 0 0 0 0 0 0 0 96 29 38 67 99 74 78 64 33 27 10 22 28 44 55 77 76 38 7 7 0 0 2 10 18 12 0 0 15 6 8 8 21 9 7 10 12 8 21 38
0 0 0 0 0 0 0 0 24 80 71 21 34 22 22 35 74 18 12 8 29 48 72 48 67 73 45 58 44 89 94 75 39 5 0 0 0 0 0 0 0 0 5 0 0 0 0 0 1
0 0 0 0 0 0 0 1 100 100 56 23 2 0 8 1 0 0 0 0 3 65 74 60 32 36 48 69 32 42 71 62 81 44 61 12 0 0 0 0 0 0 0 0 0 0 0 0 0
0 0 0 0 0 0 0 8 100 100 85 44 0 0 0 0 0 0 0 0 0 0 8 4 0 0 0 14 0 0 0 0 0 0 0 0 0 0 0 0 0 0 0 0 0 0 0 0 0
0 0 0 0 0 0 0 4 99 100 100 41 7 0 0 0 0 0 0 0 0 0 0 0 0 0 0 0 0 0 0 0 0 0 0 0 0 0 0 0 0 0 0 0 0 0 0 0 0
0 0 0 0 0 0 0 24 100 100 100 78 7 0 0 0 0 0 0 0 0 0 0 0 0 0 0 0 0 0 0 0 0 0 0 0 0 0 0 0 0 0 0 0 0 0 0 0 0
0 0 0 0 0 0 0 12 78 95 100 63 33 0 0 0 0 2 0 0 0 0 0 0 1 0 0 0 0 0 0 0 0 0 0 1 0 0 0 5 0 10 0 21 10 7 0 0 0
0 0 0 0 0 0 0 0 0 37 97 88 22 0 0 0 0 0 0 0 0 0 0 3 4 0 0 0 0 0 0 0 0 0 0 3 8 15 27 35 37 52 17 40 84 54 66 10 46
0 0 0 0 0 38 0 59 0 1 40 62 20 0 0 0 5 0 0 0 0 0 1 3 0 0 0 0 0 0 0 0 0 0 16 19 58 86 75 98 100 100 92 95 93 91 100 80 80
2 0 0 0 0 0 1 0 5 0 0 0 0 22 0 3 0 2 0 0 0 1 0 0 0 0 0 18 21 3 11 1 4 25 85 98 99 100 100 100 100 93 99 95 74 94 80 72 60
0 0 0 0 0 0 32 0 46 0 0 0 6 44 29 0 0 0 0 0 0 0 0 0 0 0 19 22 31 61 100 77 78 72 97 82 100 100 100 100 95 99 95 65 93 94 82 94 66
0 0 4 23 48 49 0 0 3 0 0 0 0 23 43 36 0 0 0 0 0 0 0 0 0 8 2 0 22 66 100 100 98 94 100 100 100 97 98 100 100 100 100 100 86 100 100 95 100
0 0 13 100 99 100 0 0 48 0 0 0 0 0 14 43 0 0 0 0 0 0 3 0 1 0 0 0 21 79 100 99 95 51 99 100 100 100 100 100 100 100 100 87 42 20 11 21 22
0 0 3 0 1 0 4 1 0 0 0 0 0 0 0 3 0 0 0 0 0 2 4 0 0 0 0 6 34 99 100 99 25 94 100 100 100 100 100 100 100 61 1 0 2 0 1 3 5
0 25 4 38 63 40 91 5 19 0 0 0 0 0 0 0 0 0 0 0 0 2 0 0 0 0 6 18 78 99 100 94 100 100 99 49 23 28 36 32 10 8 9 3 1 3 2 5 5
0 0 0 4 3 94 78 94 5 0 0 0 0 0 0 0 0 0 0 0 4 4 2 0 0 0 16 54 100 100 100 100 94 84 14 1 0 0 0 3 5 5 15 5 5 4 4 5 5
0 53 23 46 97 4 0 0 0 0 0 0 0 0 0 0 0 0 0 2 5 0 0 0 0 0 45 72 100 100 100 66 5 5 5 4 1 4 0 4 2 3 6 43 6 5 5 5 6